Wetbulb
44.08 44.63 44.67 45.45 45.77 45.84 45.70 46.37 46.88 46.69 47.11 46.89 47.05 46.83 46.70 46.63 46.41 41.93 37.77 38.50 33.22 26.04 28.74 31.24 31.42 28.88 28.13 27.89 24.05 22.86 25.56 24.83 24.22 20.67 17.13 18.15 12.95 17.24 14.11 16.26 14.47 13.14 10.61 8.11 5.49 6.22 4.43 21.41 20.53 16.20 20.96 22.71 22.44 22.65
43.47 43.80 43.73 44.27 45.22 45.66 45.61 45.78 46.21 46.42 46.68 46.61 46.63 46.74 46.73 46.59 46.44 44.86 37.93 38.81 37.44 29.03 27.28 34.46 34.04 34.29 32.35 31.99 26.64 21.81 24.80 19.76 24.44 17.76 15.48 17.65 10.05 9.76 10.41 6.88 18.54 12.71 16.93 9.67 13.57 12.10 22.81 23.28 23.77 26.52 24.73 22.54 24.14 23.59
42.80 43.12 43.02 43.72 44.52 44.76 45.18 45.48 45.58 45.75 46.03 46.16 46.28 46.33 46.57 46.33 46.31 44.91 39.81 37.14 36.30 31.68 27.65 30.71 27.59 33.32 35.68 33.66 33.49 23.85 22.35 26.55 25.90 25.73 17.48 14.90 7.71 16.82 6.20 8.00 11.10 17.52 19.99 15.65 14.51 19.34 21.20 23.95 26.50 24.84 25.53 25.02 25.78 25.36
41.85 42.66 42.76 43.42 43.81 43.74 44.15 44.98 44.88 45.38 45.71 45.76 45.84 45.95 46.39 46.52 46.57 45.50 39.95 40.07 37.42 33.22 24.09 23.96 30.43 30.70 34.61 34.17 31.93 30.97 29.23 28.36 27.69 26.71 17.93 10.93 7.54 21.89 12.45 16.67 15.12 18.19 18.88 14.21 15.21 20.88 21.09 22.41 23.51 25.08 25.39 24.98 24.77 24.54
41.32 42.33 42.76 42.75 43.07 43.06 43.52 44.13 44.40 44.78 44.83 45.17 45.04 45.45 45.54 45.88 46.41 44.72 42.43 41.20 39.68 34.07 21.73 18.98 24.35 30.13 32.70 32.28 31.35 30.81 29.54 26.63 23.91 18.95 11.56 13.00 18.02 18.95 15.28 21.13 15.43 21.60 21.22 17.61 16.32 24.79 23.28 24.45 26.04 26.25 25.05 25.40 24.58 24.20
40.82 42.40 42.29 42.15 42.35 42.59 43.39 43.52 43.65 44.00 44.25 44.14 44.13 44.40 44.84 45.18 45.26 41.19 33.17 40.43 41.47 39.38 31.27 20.56 26.27 23.72 29.42 30.53 29.61 28.21 28.09 26.93 25.19 24.10 18.49 21.23 25.10 24.80 19.36 15.98 22.87 26.61 24.86 26.37 24.19 27.32 25.35 26.99 27.56 27.13 25.38 25.24 24.78 23.90
41.39 41.39 41.88 41.93 42.16 42.31 42.49 43.05 43.23 43.42 43.49 43.27 42.81 42.32 42.70 43.84 42.31 33.47 32.27 36.29 42.60 40.18 30.69 25.19 20.38 23.21 27.69 27.06 23.35 26.64 27.65 25.41 27.36 26.11 23.91 23.45 23.28 27.21 22.05 14.21 24.92 24.16 24.94 25.66 26.01 25.67 23.73 25.17 24.11 25.75 25.07 25.36 22.03 19.65
39.87 40.02 41.72 41.66 41.67 41.79 42.03 42.39 42.45 42.44 42.29 42.19 42.34 42.42 42.50 43.02 41.66 36.98 38.56 41.62 42.56 34.76 31.35 24.28 21.41 20.49 27.80 26.81 25.35 29.50 28.26 28.88 28.38 27.60 24.07 22.53 25.44 25.85 19.30 23.17 25.41 26.17 26.62 24.91 25.47 26.02 27.12 27.79 22.55 22.83 20.35 17.50 14.91 16.48
40.43 40.15 41.72 41.29 40.99 41.00 41.31 41.52 41.43 41.27 41.31 41.34 41.48 41.67 36.44 35.89 32.96 34.89 41.74 41.83 40.60 33.79 25.87 24.30 13.39 10.30 27.06 26.86 27.62 26.98 29.67 23.35 29.22 24.10 23.25 24.92 20.27 17.84 21.33 23.52 24.19 25.38 24.67 24.77 23.88 19.18 18.19 20.02 22.88 20.07 15.87 11.74 14.85 14.43
38.96 39.71 40.91 40.63 40.59 40.61 40.56 40.56 40.67 40.68 40.63 40.87 37.23 32.52 28.80 31.74 39.09 40.69 36.09 31.62 30.97 30.08 29.93 23.68 13.27 16.15 24.68 20.69 20.01 22.97 24.80 21.66 17.56 21.46 23.80 21.43 18.93 25.16 24.66 23.08 24.26 25.20 22.88 20.11 16.30 17.17 7.99 9.33 14.82 13.86 13.30 11.84 12.34 11.15
37.57 39.84 39.73 39.40 39.31 39.13 39.08 39.38 39.68 39.86 39.51 34.58 30.59 29.62 30.70 38.89 33.26 31.25 25.76 24.36 24.80 22.77 24.36 17.59 16.66 15.91 23.30 18.17 16.71 23.11 18.89 20.54 15.02 13.36 16.02 12.86 11.00 22.70 25.86 25.01 26.43 25.81 22.24 19.11 16.91 14.12 12.77 13.99 13.73 12.26 8.49 6.85 6.19 4.01
36.19 37.15 37.53 37.80 37.56 37.19 37.13 37.30 37.59 35.48 33.17 33.47 32.97 35.66 34.37 31.38 27.65 23.03 21.22 20.39 19.60 16.39 17.24 20.80 14.50 19.62 20.12 22.51 18.07 21.28 16.62 18.19 12.52 13.64 14.80 5.34 16.88 21.61 20.40 23.23 25.33 18.18 15.79 8.79 7.01 8.94 7.39 8.41 6.47 6.95 4.04 0.88 -1.84 -1.97
34.36 35.63 35.95 36.43 36.45 36.46 36.74 36.97 37.68 38.37 37.76 33.88 30.24 26.52 26.19 24.34 19.68 17.11 14.81 13.70 12.17 11.13 19.71 13.98 17.36 20.41 23.96 25.58 21.50 20.03 15.55 13.52 14.84 13.87 8.83 9.88 13.00 13.90 18.64 16.55 5.21 3.16 3.24 1.35 0.01 0.54 -0.09 -2.41 -3.78 -4.84 -5.18 -6.65 -7.20 -9.17
34.75 34.71 34.74 34.67 34.84 35.66 36.35 37.08 37.74 37.83 32.12 25.21 22.63 17.71 17.29 16.14 16.27 12.88 8.95 10.54 14.20 12.69 14.07 13.22 18.95 17.47 20.94 20.15 21.38 15.27 17.84 15.08 11.47 8.92 4.19 12.01 10.18 14.13 12.04 3.15 3.29 1.50 -0.73 -0.61 -3.02 -3.97 -5.10 -5.99 -8.37 -9.54 -10.62 -12.56 -11.74 -13.44
32.81 32.74 33.28 32.98 33.92 34.11 34.92 35.96 37.04 35.42 28.89 22.34 21.81 15.03 15.18 7.88 7.49 -0.57 -4.16 4.44 8.86 11.41 19.94 14.43 13.38 21.61 18.50 18.57 20.18 16.74 10.41 9.32 9.73 4.94 6.87 6.96 5.04 4.96 2.10 -3.01 -1.82 -1.58 -4.86 -8.53 -11.71 -10.11 -8.65 -9.74 -11.24 -16.55 -22.00 -21.88 -19.16 -19.35
31.07 31.90 29.52 32.28 33.16 34.08 34.59 33.46 33.13 31.64 27.52 23.00 21.13 11.87 2.77 4.02 2.80 1.63 0.66 6.70 11.91 18.84 18.76 19.40 18.39 18.36 16.34 15.57 13.13 11.32 9.32 5.76 6.73 4.30 -2.57 -3.08 -5.71 -3.72 -4.24 -2.03 -2.46 -4.70 -6.99 -10.22 -13.63 -12.61 -12.08 -13.98 -14.82 -19.07 -26.58 -25.79 -22.82 -21.99
29.12 15.96 29.70 30.49 31.17 31.77 31.71 26.58 27.58 24.96 22.38 18.69 12.27 -10.43 -2.90 0.41 4.74 0.53 1.97 8.48 14.95 18.18 17.92 18.73 15.09 14.24 19.53 14.53 12.96 13.65 6.36 3.84 -0.55 -2.15 -5.06 -2.88 -2.47 -7.13 -5.19 -6.45 -9.36 -10.24 -11.11 -13.03 -14.18 -13.89 -19.45 -25.56 -26.26 -22.59 -18.56 -20.35 -24.93 -24.74
17.39 22.28 28.81 29.18 26.54 23.55 13.99 14.62 15.46 16.35 9.78 6.04 -0.00 -6.10 -6.84 -6.08 0.45 1.68 5.24 11.04 17.20 19.03 18.00 16.59 18.58 13.27 10.90 8.28 3.87 2.43 -2.82 -4.58 -5.40 -8.24 -9.37 -10.29 -11.39 -9.96 -8.46 -10.34 -9.21 -9.17 -11.63 -13.44 -15.05 -18.24 -22.35 -24.14 -18.29 -19.41 -22.14 -22.51 -23.11 -23.28
18.85 24.41 27.64 28.41 27.20 9.64 5.95 5.66 5.65 1.30 -1.95 1.68 1.95 1.31 -6.75 -8.86 -2.44 1.84 3.71 9.06 12.05 13.93 13.42 14.44 13.35 12.38 7.62 0.35 -1.90 -1.44 -3.89 -6.33 -6.46 -6.75 -8.17 -8.26 -7.51 -8.26 -9.92 -11.32 -13.16 -13.08 -13.87 -17.39 -17.77 -14.45 -16.83 -16.80 -15.38 -14.32 -15.92 -18.97 -18.46 -23.05
26.53 26.58 26.21 25.26 23.52 11.49 -1.16 -0.09 4.62 0.55 -4.70 -0.00 2.21 1.73 -1.04 -2.68 -3.18 -6.32 -4.87 4.26 9.57 9.86 10.20 3.65 -6.60 -10.08 -8.09 -8.27 -8.45 -7.17 -4.07 -2.32 -5.23 -8.17 -8.61 -8.86 -9.79 -11.38 -11.31 -10.51 -10.00 -12.04 -13.36 -15.37 -15.70 -13.72 -14.47 -13.45 -14.71 -17.52 -23.34 -23.19 -21.76 -20.58
19.14 16.55 21.12 15.06 10.45 7.62 2.64 2.47 -1.98 -0.47 -2.16 -4.40 -1.14 1.32 0.01 -0.13 -5.78 -10.89 -10.09 -0.11 -0.98 -8.92 -7.95 -11.52 -11.38 -10.75 -9.03 -9.80 -10.61 -11.02 -7.18 -8.74 -5.82 -5.66 -5.42 -9.88 -9.65 -9.35 -11.30 -12.71 -14.13 -16.23 -15.99 -15.07 -13.41 -14.42 -17.52 -19.77 -21.23 -24.61 -24.82 -23.86 -26.46 -24.77
12.92 19.98 8.26 14.99 8.24 4.67 1.69 0.67 -0.82 0.31 -2.53 -6.33 -2.90 -5.30 -8.81 -8.64 -9.49 -8.51 -4.74 -7.99 -12.57 -17.42 -18.50 -16.71 -14.68 -14.49 -13.11 -12.09 -13.28 -12.76 -12.44 -9.30 -7.99 -8.16 -7.83 -9.21 -14.02 -13.30 -13.89 -12.59 -11.15 -14.84 -19.88 -17.49 -20.65 -22.47 -24.53 -24.59 -25.60 -24.81 -24.15 -22.94 -20.04 -20.07
13.61 12.83 6.01 4.35 2.97 -1.14 -4.39 -0.06 -5.64 -6.35 -6.68 -7.16 -7.77 -5.20 -9.06 -11.00 -9.96 -3.45 -10.81 -15.45 -17.02 -13.44 -17.28 -16.86 -17.82 -16.98 -16.28 -12.22 -10.87 -9.64 -10.48 -9.63 -9.77 -9.77 -9.21 -12.08 -19.14 -17.43 -15.44 -20.06 -19.65 -17.43 -20.02 -19.60 -26.64 -26.31 -22.70 -17.85 -18.34 -20.09 -20.64 -19.24 -19.91 -19.50
5.08 -5.57 -5.69 -7.15 -5.67 -11.92 -8.11 -6.60 -3.67 -5.53 -9.02 -11.34 -9.98 -12.17 -16.72 -14.77 -9.21 -5.79 -16.57 -21.09 -16.88 -13.40 -16.05 -14.70 -13.85 -11.70 -10.33 -10.49 -11.55 -12.96 -13.87 -14.04 -12.99 -13.06 -15.04 -14.41 -15.49 -18.94 -19.80 -24.23 -28.12 -27.85 -24.72 -25.24 -24.68 -24.59 -23.61 -22.03 -17.16 -18.41 -18.12 -18.42 -16.80 -14.74
-3.76 -17.31 -12.73 -15.83 -12.47 -13.21 -14.14 -12.32 -11.61 -10.51 -16.65 -14.69 -12.28 -12.08 -15.15 -14.06 -7.17 -14.23 -17.02 -20.46 -17.58 -15.52 -14.32 -14.42 -13.07 -12.00 -14.55 -13.74 -12.58 -14.80 -16.85 -16.70 -15.69 -18.96 -20.15 -26.61 -28.87 -26.00 -22.99 -26.76 -26.11 -24.68 -27.14 -23.65 -23.66 -24.43 -23.14 -19.75 -14.01 -12.00 -11.81 -13.86 -12.80 -11.78
-23.01 -24.36 -20.53 -22.17 -17.81 -16.88 -19.80 -20.15 -19.25 -19.31 -15.99 -16.79 -17.16 -13.46 -12.96 -7.18 -13.08 -19.79 -20.52 -20.39 -19.96 -16.78 -16.45 -18.09 -19.53 -17.37 -13.47 -14.88 -15.26 -13.59 -16.98 -26.18 -25.65 -21.73 -22.38 -27.67 -26.44 -25.34 -27.02 -23.37 -22.58 -16.80 -23.67 -23.69 -22.96 -20.72 -15.64 -9.90 -11.12 -10.50 -10.30 -9.91 -8.68 -10.60
-22.02 -23.45 -21.94 -18.64 -19.24 -17.43 -16.22 -14.11 -14.20 -15.48 -18.93 -18.76 -19.23 -14.67 -9.16 -17.84 -21.51 -19.97 -17.07 -14.09 -15.34 -15.00 -15.00 -16.46 -21.08 -20.75 -19.70 -19.87 -19.85 -20.39 -19.11 -21.03 -17.59 -14.42 -19.25 -24.77 -22.49 -22.64 -18.49 -16.58 -15.77 -14.42 -19.72 -18.80 -15.84 -14.58 -12.55 -9.65 -9.55 -9.10 -9.56 -10.85 -11.12 -9.75
-27.83 -27.08 -25.55 -22.51 -21.45 -22.91 -21.56 -19.62 -21.98 -23.66 -21.80 -22.53 -19.49 -20.05 -20.29 -21.24 -23.69 -16.24 -13.56 -11.30 -12.20 -13.77 -14.76 -17.06 -17.67 -17.36 -17.24 -14.51 -13.33 -11.85 -11.35 -11.12 -11.13 -12.40 -13.07 -11.20 -11.65 -10.48 -12.76 -14.99 -14.37 -0.39 -9.42 -10.65 -10.27 -10.78 -12.53 -11.34 -11.36 -11.71 -11.32 -10.17 -9.05 -9.84
-30.15 -28.03 -27.45 -23.64 -28.94 -27.02 -28.09 -25.89 -25.71 -25.72 -26.62 -26.42 -19.77 -18.63 -19.33 -14.11 -14.13 -15.77 -12.97 -12.26 -11.99 -12.44 -11.89 -11.06 -8.25 -8.95 -10.41 -9.01 -7.27 -7.31 -7.35 -7.28 -7.22 -9.02 -10.82 -10.64 -9.33 -8.92 -11.52 -10.87 -12.73 -12.93 -14.04 -15.91 -7.08 -3.17 -9.37 -12.84 -12.57 -11.66 -10.62 -10.70 -10.47 -16.15
-27.64 -32.65 -23.40 -22.81 -22.74 -25.68 -27.73 -31.18 -29.01 -29.26 -27.20 -27.08 -26.15 -18.65 -15.97 -14.82 -11.92 -10.36 -11.81 -13.21 -13.54 -13.87 -12.86 -12.20 -9.34 -8.62 -9.83 -10.45 -10.33 -9.00 -9.26 -8.66 -9.63 -11.57 -13.28 -12.28 -10.66 -8.65 -9.74 -11.28 -12.23 -13.10 -14.63 -21.53 -14.11 -11.75 -6.35 -11.03 -11.01 -15.37 -17.72 -17.86 -18.43 -19.23
-31.59 -29.72 -25.09 -23.69 -26.47 -29.38 -29.42 -33.15 -29.86 -28.26 -26.55 -25.52 -25.26 -22.05 -20.82 -19.75 -13.11 -6.61 -9.11 -8.78 -7.60 -7.88 -8.97 -9.81 -9.73 -10.39 -10.87 -10.94 -11.81 -11.67 -11.19 -8.43 -7.43 -9.02 -10.72 -9.79 -9.69 -10.45 -10.87 -10.06 -9.91 -11.59 -13.59 -15.30 -14.60 -13.86 -12.40 -13.07 -17.73 -16.66 -17.32 -18.56 -18.71 -16.82
-28.90 -30.94 -30.90 -28.29 -29.53 -32.44 -34.65 -27.91 -27.15 -26.79 -26.52 -24.37 -23.85 -23.97 -21.78 -17.76 -18.95 -13.24 -9.16 -9.37 -10.06 -11.49 -10.30 -10.85 -11.95 -11.72 -9.87 -8.89 -8.15 -8.92 -7.39 -8.93 -8.77 -8.92 -9.38 -7.54 -6.86 -6.28 -6.62 -7.85 -9.69 -13.05 -15.49 -15.69 -17.41 -17.35 -16.72 -17.66 -17.69 -19.31 -18.16 -20.10 -20.00 -20.38
-27.30 -27.51 -26.65 -23.85 -24.03 -24.22 -24.12 -25.36 -20.82 -20.11 -19.37 -20.44 -20.26 -20.61 -20.62 -16.67 -18.02 -12.47 -7.60 -9.77 -12.06 -13.78 -13.18 -12.58 -11.40 -10.35 -11.28 -12.18 -10.51 -10.45 -9.94 -9.34 -8.57 -3.23 -3.48 -2.68 -3.54 -3.03 -4.65 -5.85 -8.78 -12.76 -15.65 -17.08 -17.54 -18.15 -18.23 -19.06 -18.16 -18.15 -18.49 -19.34 -19.06 -18.74
MSLP
1005.83 1005.97 1006.06 1006.30 1006.53 1006.75 1006.98 1007.20 1007.47 1007.76 1008.20 1008.60 1009.08 1009.64 1010.19 1010.58 1011.13 1012.20 1012.82 1012.86 1013.59 1013.68 1013.79 1013.73 1013.56 1013.54 1013.77 1015.11 1015.95 1017.49 1018.44 1019.02 1019.37 1019.87 1020.83 1021.24 1021.83 1021.80 1022.11 1021.91 1022.16 1022.71 1023.93 1024.40 1024.96 1024.79 1023.09 1020.28 1020.97 1020.66 1019.54 1019.90 1020.30 1020.74
1004.95 1005.15 1005.32 1005.57 1005.84 1005.99 1006.28 1006.37 1006.80 1007.13 1007.56 1008.07 1008.52 1008.92 1009.47 1009.97 1010.52 1011.32 1012.38 1012.86 1013.06 1013.94 1014.51 1014.24 1013.68 1013.25 1013.00 1013.64 1014.82 1016.71 1016.78 1017.29 1017.45 1018.73 1020.55 1021.12 1022.41 1022.48 1022.04 1022.39 1021.69 1021.70 1021.00 1021.95 1022.28 1021.37 1019.70 1019.22 1018.49 1018.23 1018.47 1019.03 1019.57 1019.73
1003.99 1004.15 1004.33 1004.68 1005.05 1005.35 1005.59 1005.92 1006.27 1006.62 1007.07 1007.51 1007.90 1008.46 1008.83 1009.45 1009.90 1010.71 1011.57 1012.53 1013.27 1014.21 1014.28 1014.17 1013.43 1012.66 1013.09 1013.14 1012.89 1014.77 1016.76 1016.72 1016.95 1017.30 1019.58 1020.88 1021.61 1021.55 1021.97 1021.47 1021.13 1020.27 1019.87 1020.17 1020.57 1019.45 1019.11 1018.86 1018.10 1017.90 1018.13 1018.38 1018.38 1018.69
1003.05 1003.25 1003.51 1003.71 1004.15 1004.46 1004.94 1005.30 1005.74 1006.15 1006.52 1006.96 1007.41 1007.75 1008.20 1008.64 1009.25 1010.03 1010.68 1011.33 1012.42 1013.54 1014.20 1013.23 1012.87 1012.70 1012.15 1012.81 1013.21 1013.32 1014.19 1015.66 1016.48 1017.33 1018.61 1020.25 1021.42 1019.95 1020.64 1020.00 1019.63 1018.96 1018.93 1018.70 1018.66 1018.39 1018.27 1018.07 1017.50 1017.43 1017.36 1017.62 1017.93 1018.17
1002.20 1002.33 1002.57 1002.95 1003.40 1003.77 1004.25 1004.80 1005.26 1005.54 1006.06 1006.58 1007.03 1007.33 1007.74 1008.10 1008.71 1009.29 1009.95 1010.42 1011.13 1012.10 1012.98 1013.59 1013.45 1012.45 1012.14 1012.89 1013.22 1013.39 1014.17 1014.87 1016.44 1017.92 1019.01 1019.57 1019.16 1019.06 1019.54 1019.23 1018.38 1017.25 1016.66 1017.49 1017.27 1016.56 1016.90 1016.72 1016.47 1016.37 1016.79 1016.97 1017.16 1017.62
1001.23 1001.06 1001.66 1002.23 1002.69 1003.09 1003.51 1004.22 1004.83 1005.22 1005.66 1006.20 1006.76 1007.09 1007.54 1007.90 1008.39 1009.18 1009.51 1009.94 1010.22 1011.12 1012.37 1013.02 1012.26 1012.25 1012.04 1012.66 1013.00 1013.60 1013.71 1014.41 1015.81 1016.68 1017.60 1017.66 1017.38 1017.43 1018.47 1018.21 1015.85 1014.76 1015.39 1015.40 1015.40 1015.13 1015.82 1015.61 1015.61 1015.52 1015.96 1016.13 1016.39 1016.79
1000.20 1000.24 1000.84 1001.49 1002.05 1002.53 1003.07 1003.60 1004.21 1004.81 1005.37 1005.83 1006.56 1007.10 1007.35 1007.63 1008.15 1008.77 1009.21 1008.41 1008.84 1010.42 1011.59 1012.30 1012.70 1012.55 1012.07 1012.32 1013.23 1013.52 1013.85 1014.35 1014.84 1016.14 1016.71 1016.60 1016.63 1016.59 1016.84 1016.18 1012.64 1013.71 1014.02 1014.20 1014.58 1015.19 1015.49 1015.08 1015.08 1014.76 1015.24 1015.36 1015.83 1016.19
999.52 999.99 1000.07 1000.83 1001.49 1002.05 1002.55 1003.17 1003.88 1004.48 1005.06 1005.60 1006.09 1006.54 1007.04 1007.47 1007.99 1008.30 1008.84 1008.63 1008.71 1009.78 1010.76 1011.39 1012.13 1012.64 1012.26 1012.48 1013.25 1013.10 1013.48 1014.07 1014.50 1014.88 1015.39 1015.60 1016.11 1015.80 1014.88 1012.03 1013.01 1013.03 1012.94 1013.78 1013.71 1014.07 1014.16 1014.15 1014.63 1014.93 1015.21 1015.83 1016.54 1017.03
999.07 999.23 999.29 1000.17 1001.02 1001.71 1002.34 1003.02 1003.76 1004.47 1004.99 1005.54 1006.00 1006.49 1007.23 1007.50 1007.82 1007.91 1008.16 1008.63 1008.92 1009.61 1009.81 1010.66 1011.71 1012.26 1012.07 1012.20 1012.59 1013.02 1012.97 1013.47 1013.59 1013.77 1014.08 1014.74 1014.57 1013.50 1010.87 1011.63 1012.12 1011.89 1012.38 1012.59 1012.96 1013.80 1014.36 1014.95 1014.74 1015.10 1015.70 1016.30 1016.89 1017.27
998.54 998.37 998.76 999.78 1000.78 1001.50 1002.28 1002.95 1003.52 1004.10 1004.72 1005.21 1006.16 1006.97 1007.13 1007.04 1006.87 1007.61 1008.24 1008.67 1008.83 1008.95 1009.48 1010.21 1011.04 1011.88 1011.87 1012.15 1012.56 1013.06 1012.92 1012.92 1012.95 1013.03 1013.40 1013.32 1012.35 1010.00 1010.62 1010.92 1010.81 1010.93 1011.66 1012.78 1014.06 1014.48 1014.91 1015.12 1015.35 1015.66 1016.14 1016.71 1017.41 1018.11
998.86 998.77 999.25 1000.04 1000.86 1001.60 1002.22 1002.80 1003.41 1003.93 1004.68 1005.48 1005.98 1006.29 1006.38 1006.34 1006.86 1007.75 1008.24 1008.78 1008.84 1009.08 1008.97 1009.39 1010.18 1011.38 1011.74 1011.83 1012.34 1012.41 1012.44 1012.76 1013.02 1012.78 1013.10 1012.69 1011.01 1009.50 1010.24 1010.42 1010.29 1010.78 1011.79 1012.63 1013.35 1013.93 1014.46 1014.84 1015.27 1016.10 1017.03 1017.81 1018.54 1019.37
999.88 999.94 1000.16 1000.52 1001.25 1001.95 1002.43 1002.82 1003.30 1004.02 1004.78 1005.04 1005.39 1005.96 1006.05 1006.19 1006.67 1007.28 1007.51 1008.25 1008.72 1008.96 1009.07 1009.20 1009.64 1009.58 1010.86 1011.00 1011.53 1012.00 1012.19 1012.53 1012.29 1012.47 1012.84 1012.19 1009.34 1009.45 1009.66 1009.72 1009.73 1011.12 1012.16 1013.35 1014.18 1014.87 1015.64 1016.18 1016.67 1017.23 1018.30 1019.34 1020.10 1020.82
1000.42 1000.70 1000.89 1001.20 1001.61 1002.03 1002.41 1002.64 1002.97 1003.79 1004.56 1005.22 1005.53 1005.96 1005.94 1005.75 1005.72 1006.62 1007.57 1008.56 1008.90 1008.88 1008.59 1008.89 1009.27 1009.19 1010.13 1010.13 1010.61 1011.00 1011.19 1011.55 1012.13 1012.62 1012.31 1011.03 1009.59 1009.44 1009.39 1010.06 1011.49 1012.54 1013.49 1014.50 1015.67 1016.34 1017.11 1017.95 1018.41 1019.09 1020.22 1020.98 1021.75 1022.59
1000.84 1001.06 1001.26 1001.52 1001.78 1002.06 1002.31 1002.43 1002.74 1003.52 1004.13 1004.68 1005.11 1005.71 1006.09 1006.14 1006.37 1006.91 1007.44 1007.43 1007.11 1007.23 1007.83 1008.19 1008.72 1008.76 1008.97 1009.30 1009.36 1009.87 1010.24 1011.13 1011.91 1012.29 1011.56 1010.23 1010.11 1009.82 1010.35 1010.82 1012.37 1013.69 1014.82 1015.90 1016.83 1017.61 1018.46 1019.27 1020.29 1020.97 1021.70 1022.34 1022.84 1023.61
1001.80 1001.91 1001.90 1002.01 1002.08 1002.19 1002.20 1002.37 1002.69 1003.38 1003.63 1004.49 1005.08 1005.82 1006.60 1006.92 1007.59 1008.17 1008.10 1007.84 1007.49 1007.04 1007.21 1007.96 1008.15 1008.01 1008.29 1008.44 1008.46 1009.32 1010.59 1011.25 1011.78 1012.06 1011.42 1010.95 1011.04 1011.34 1011.77 1012.52 1013.52 1014.77 1016.10 1017.32 1018.54 1019.50 1020.13 1020.79 1021.60 1022.69 1023.26 1023.38 1023.69 1024.29
1002.27 1002.35 1002.62 1002.68 1002.52 1002.39 1002.39 1002.53 1003.07 1003.41 1003.83 1004.70 1005.53 1006.90 1008.03 1008.47 1009.17 1009.29 1009.19 1008.77 1007.87 1007.37 1007.03 1007.09 1007.48 1007.54 1007.58 1007.84 1008.51 1009.16 1010.65 1011.57 1011.54 1012.36 1012.85 1013.00 1013.05 1013.58 1014.29 1014.73 1015.17 1015.91 1017.15 1018.50 1019.42 1020.27 1021.23 1022.10 1022.95 1023.83 1024.41 1024.45 1024.68 1024.83
1002.66 1003.33 1003.01 1002.90 1002.81 1003.07 1003.17 1003.34 1003.67 1003.87 1004.48 1005.46 1007.34 1008.09 1008.95 1009.17 1009.69 1009.88 1009.40 1009.03 1008.24 1007.78 1007.46 1007.45 1007.39 1007.25 1007.91 1008.56 1009.41 1009.90 1010.89 1011.85 1012.86 1013.77 1014.55 1015.31 1015.11 1015.44 1015.78 1016.47 1017.67 1018.45 1019.00 1019.99 1020.68 1021.27 1022.10 1023.02 1023.78 1024.37 1025.05 1025.04 1024.71 1024.75
1003.52 1003.54 1003.25 1003.16 1003.22 1003.66 1004.74 1005.08 1005.42 1005.87 1006.99 1008.25 1009.36 1009.97 1010.19 1010.41 1010.75 1010.57 1010.20 1009.50 1008.79 1008.60 1008.38 1008.20 1008.26 1008.85 1009.71 1010.67 1011.40 1011.86 1012.83 1014.01 1015.03 1015.91 1016.65 1016.98 1016.99 1017.06 1017.07 1017.86 1019.05 1019.51 1019.99 1020.82 1021.61 1022.38 1022.97 1023.58 1024.04 1024.52 1024.80 1024.94 1024.91 1024.87
1003.59 1003.71 1003.66 1003.65 1003.60 1004.67 1006.43 1007.44 1007.56 1008.23 1009.47 1009.99 1010.56 1011.27 1011.86 1012.06 1011.88 1011.67 1011.13 1010.49 1009.97 1009.80 1009.71 1009.96 1010.93 1011.83 1012.92 1013.89 1014.92 1015.37 1015.79 1016.41 1016.82 1017.36 1017.79 1018.09 1018.36 1018.51 1018.81 1019.44 1020.20 1020.55 1021.02 1021.65 1022.28 1022.76 1023.25 1023.66 1023.95 1024.27 1024.67 1024.78 1025.11 1025.25
1003.76 1003.81 1003.97 1004.35 1004.21 1005.57 1007.74 1008.83 1008.71 1009.43 1010.87 1011.28 1011.56 1012.31 1013.08 1013.29 1013.29 1013.17 1012.55 1011.86 1011.39 1011.39 1012.31 1013.86 1015.55 1016.81 1017.26 1017.67 1018.08 1018.30 1018.16 1017.97 1017.78 1017.86 1018.28 1018.70 1019.42 1019.89 1020.16 1020.28 1020.82 1021.57 1022.18 1022.64 1023.00 1023.34 1023.74 1023.97 1024.18 1024.43 1024.52 1024.65 1024.90 1024.94
1004.54 1004.74 1004.83 1005.03 1006.48 1007.57 1009.34 1010.28 1010.85 1011.45 1011.80 1012.25 1012.74 1013.11 1013.68 1013.75 1014.41 1014.71 1014.67 1014.09 1014.19 1016.60 1017.80 1018.82 1019.21 1019.68 1019.98 1020.05 1019.99 1019.86 1019.39 1019.39 1018.98 1018.56 1018.48 1019.34 1020.00 1020.36 1020.77 1021.07 1021.54 1022.18 1022.70 1023.30 1023.78 1024.10 1024.23 1024.49 1024.54 1024.48 1024.36 1024.29 1024.21 1024.18
1005.50 1005.31 1006.11 1006.25 1007.73 1009.36 1010.71 1011.69 1011.92 1012.43 1012.88 1013.60 1013.82 1014.18 1014.87 1015.62 1016.09 1016.34 1016.45 1016.85 1019.45 1021.17 1021.69 1021.79 1021.66 1021.56 1021.28 1021.00 1020.91 1020.81 1020.63 1020.12 1019.53 1019.38 1019.47 1019.98 1020.74 1021.26 1021.73 1021.90 1022.47 1022.94 1023.34 1023.64 1024.23 1024.40 1024.66 1024.50 1024.43 1024.33 1024.29 1024.07 1023.91 1023.67
1006.22 1006.47 1007.78 1008.54 1009.48 1010.87 1012.84 1012.47 1012.86 1013.53 1014.04 1014.78 1015.01 1015.58 1016.59 1016.96 1017.11 1017.21 1018.97 1020.93 1022.22 1022.87 1023.12 1023.12 1022.96 1022.62 1022.29 1021.85 1021.65 1021.34 1021.07 1020.67 1020.54 1020.58 1020.76 1021.10 1021.46 1021.96 1022.39 1022.86 1023.15 1023.37 1023.89 1024.07 1024.08 1024.39 1024.72 1024.29 1024.26 1024.08 1023.91 1023.69 1023.48 1023.41
1008.15 1010.23 1011.33 1012.01 1012.60 1013.82 1013.82 1013.99 1014.11 1014.72 1015.19 1015.74 1016.27 1017.25 1017.89 1018.14 1017.89 1018.39 1020.92 1022.62 1023.45 1023.58 1023.64 1023.57 1023.30 1022.60 1022.17 1022.12 1022.22 1022.11 1022.13 1022.05 1021.94 1021.97 1022.14 1022.39 1022.75 1023.27 1023.52 1023.69 1023.52 1023.66 1023.84 1023.68 1023.98 1024.23 1024.25 1024.02 1023.72 1023.54 1023.41 1023.41 1023.42 1023.50
1010.55 1016.10 1016.15 1016.16 1016.11 1015.91 1016.15 1016.19 1016.27 1016.35 1017.38 1017.46 1017.76 1018.34 1018.67 1018.82 1019.08 1020.87 1022.80 1023.98 1024.15 1024.36 1024.44 1024.20 1023.75 1023.49 1023.31 1023.02 1022.89 1022.89 1022.99 1023.18 1023.20 1023.26 1023.23 1023.32 1023.76 1024.20 1024.15 1023.80 1023.74 1023.77 1023.80 1023.98 1024.34 1024.41 1023.99 1023.52 1023.26 1023.12 1023.07 1023.14 1023.15 1022.95
1016.53 1020.31 1020.28 1020.09 1019.76 1019.03 1019.19 1018.85 1018.98 1019.17 1019.00 1019.31 1019.74 1019.57 1019.41 1019.57 1021.01 1023.35 1024.57 1025.11 1025.27 1025.22 1025.28 1025.21 1025.09 1024.51 1024.00 1023.94 1023.87 1023.66 1024.00 1023.98 1023.73 1023.63 1023.67 1023.62 1024.18 1024.48 1024.67 1024.62 1024.34 1023.44 1023.22 1023.37 1023.55 1023.79 1023.38 1022.87 1022.81 1022.74 1022.69 1022.58 1022.51 1022.46
1021.25 1022.98 1022.86 1022.66 1022.26 1021.53 1021.13 1020.93 1020.87 1021.10 1021.67 1022.20 1021.97 1021.02 1020.56 1021.95 1023.88 1025.03 1025.35 1025.64 1025.73 1025.54 1025.48 1025.36 1025.47 1025.33 1024.93 1024.38 1023.96 1023.68 1023.70 1023.86 1023.78 1023.78 1023.72 1023.85 1023.83 1023.79 1023.75 1023.59 1023.26 1023.02 1022.59 1022.71 1022.75 1022.72 1022.59 1022.50 1022.46 1022.36 1022.26 1022.15 1022.11 1022.07
1024.89 1025.37 1025.24 1024.47 1023.79 1023.72 1023.55 1023.72 1024.22 1025.02 1025.16 1024.94 1024.15 1023.72 1024.06 1024.98 1026.01 1025.95 1025.86 1025.91 1025.88 1025.58 1025.20 1024.98 1025.00 1024.95 1024.73 1024.26 1023.87 1023.58 1023.27 1023.07 1022.97 1023.07 1023.17 1023.17 1023.09 1023.05 1022.95 1022.84 1022.71 1022.54 1022.40 1022.24 1022.09 1022.03 1022.13 1022.16 1022.09 1021.98 1021.91 1021.77 1021.55 1021.41
1026.80 1026.90 1026.52 1025.95 1025.53 1025.92 1027.02 1027.33 1027.59 1027.86 1028.06 1027.26 1026.30 1026.25 1026.45 1026.61 1026.82 1026.80 1026.49 1026.30 1025.91 1025.60 1025.24 1024.93 1024.59 1024.38 1024.32 1024.10 1023.87 1023.70 1023.47 1023.26 1023.05 1023.24 1023.33 1023.28 1023.09 1023.03 1022.90 1022.76 1022.62 1022.40 1022.22 1022.05 1021.79 1021.53 1021.47 1021.50 1021.47 1021.43 1021.26 1021.25 1021.10 1021.10
1028.44 1028.11 1027.35 1026.86 1027.43 1028.76 1029.50 1029.78 1029.57 1029.47 1029.16 1028.81 1028.38 1027.70 1027.49 1027.35 1027.18 1026.93 1026.56 1026.31 1026.00 1025.86 1025.73 1025.60 1025.28 1024.94 1024.91 1024.65 1024.53 1024.35 1024.27 1024.14 1024.20 1024.32 1024.12 1023.83 1023.62 1023.22 1022.92 1022.66 1022.41 1022.14 1021.99 1021.85 1021.68 1021.41 1021.16 1021.10 1021.09 1021.13 1021.19 1021.24 1021.32 1021.16
1029.39 1028.85 1028.38 1028.47 1029.55 1030.27 1030.65 1030.71 1030.22 1029.90 1029.40 1029.01 1028.66 1028.17 1028.13 1027.86 1027.22 1026.98 1026.89 1026.73 1026.52 1026.31 1026.12 1026.08 1025.98 1025.94 1025.74 1025.56 1025.36 1025.05 1024.69 1024.39 1024.36 1024.22 1024.02 1023.67 1023.24 1022.86 1022.52 1022.20 1021.92 1021.71 1021.60 1021.62 1021.60 1021.53 1021.42 1021.31 1021.21 1021.10 1020.96 1020.87 1020.70 1020.64
1029.97 1030.15 1029.93 1029.95 1030.46 1030.78 1030.99 1030.51 1029.88 1029.40 1029.10 1028.82 1028.80 1028.42 1028.24 1027.88 1027.80 1027.63 1027.93 1027.55 1027.26 1027.10 1027.11 1026.97 1026.75 1026.53 1026.29 1026.01 1025.71 1025.50 1025.27 1024.95 1024.46 1023.98 1023.49 1023.04 1022.56 1022.18 1021.89 1021.68 1021.51 1021.41 1021.40 1021.41 1021.41 1021.41 1021.21 1021.07 1020.89 1020.74 1020.55 1020.30 1020.02 1019.82
1030.77 1030.64 1030.61 1030.72 1030.74 1030.76 1030.44 1030.01 1029.20 1028.79 1028.40 1028.54 1028.62 1028.45 1028.24 1027.97 1028.28 1028.36 1028.18 1028.13 1028.08 1027.89 1027.60 1027.42 1027.09 1026.69 1026.49 1026.16 1025.57 1025.31 1025.08 1024.75 1024.37 1023.63 1023.19 1022.63 1022.15 1021.71 1021.57 1021.44 1021.23 1021.21 1021.13 1021.15 1021.16 1021.10 1020.88 1020.68 1020.46 1020.18 1019.93 1019.69 1019.37 1019.06
Wind_Speed
23 22 17 20 21 21 19 17 20 18 20 18 18 21 22 20 21 8 3 4 4 3 4 3 2 4 4 2 7 5 5 1 2 3 4 5 3 7 3 4 8 9 9 6 3 3 10 9 6 9 7 3 6 7
26 24 22 20 21 20 19 18 17 17 18 18 18 18 19 19 20 15 3 3 3 4 4 2 4 3 1 6 7 1 1 5 6 5 1 4 1 1 3 5 1 3 8 9 12 10 3 8 8 13 6 6 7 7
26 28 24 22 19 18 20 19 18 19 18 19 18 16 18 17 19 16 3 5 4 2 4 1 5 5 4 6 5 8 2 4 3 3 5 3 4 5 5 6 2 5 4 4 5 5 6 9 12 5 8 9 8 8
24 26 24 23 21 19 15 19 18 19 20 16 16 17 17 21 22 19 4 6 4 3 3 6 3 4 4 6 4 4 8 5 6 3 3 4 4 4 4 3 5 6 6 5 4 5 5 10 9 9 10 10 9 9
24 27 25 23 24 23 18 15 16 18 15 13 13 12 12 15 21 15 6 8 7 5 4 3 3 7 4 9 10 7 11 7 3 3 3 4 2 4 1 2 5 8 10 5 9 17 10 11 9 8 10 13 13 12
25 29 24 21 20 18 19 21 17 14 15 15 14 15 11 12 17 4 4 7 10 7 3 3 2 3 7 8 9 8 7 4 4 5 3 3 4 5 4 5 15 20 6 14 15 15 9 15 13 11 13 13 11 10
21 18 22 21 18 18 18 20 18 17 16 16 14 12 11 13 6 3 3 2 19 10 3 3 3 3 1 5 2 3 3 3 4 3 4 4 3 8 4 7 23 6 11 12 11 9 12 16 11 10 11 13 6 3
19 18 23 21 19 16 16 17 16 15 13 12 12 11 12 11 9 5 4 4 10 4 3 4 2 1 3 4 3 3 4 4 4 4 2 4 4 4 8 21 11 14 18 10 15 14 20 16 3 9 4 4 5 7
22 18 22 22 18 15 15 16 16 12 12 11 10 10 2 2 3 1 16 14 4 3 3 4 6 6 3 2 3 1 3 5 5 7 5 8 5 10 14 11 14 20 15 16 8 4 5 10 15 8 6 4 8 6
9 19 20 20 18 16 16 16 16 15 13 13 4 3 4 5 9 12 3 3 6 5 4 3 2 2 3 1 2 3 1 3 3 3 4 6 9 23 7 9 11 14 10 6 3 10 1 5 8 5 8 2 3 3
2 10 15 18 18 17 15 14 13 13 8 2 4 4 2 9 3 4 5 6 4 3 3 3 6 6 2 4 4 3 4 4 4 6 7 4 9 18 15 17 18 14 9 10 6 2 4 5 5 6 4 4 5 6
6 6 12 14 14 12 11 11 11 7 4 6 4 3 3 4 4 6 6 3 4 8 3 7 6 5 4 4 4 5 5 4 6 3 5 5 11 10 10 18 21 6 8 7 5 8 5 5 3 6 6 5 5 6
2 5 5 7 7 7 9 11 12 12 11 2 3 4 4 4 8 9 10 3 3 4 6 3 2 4 4 4 4 6 7 7 5 6 6 8 5 7 13 8 4 4 7 8 6 6 7 6 5 4 7 5 6 6
9 8 7 5 2 5 7 9 10 14 3 4 5 8 5 3 4 4 6 7 6 5 8 4 4 4 3 5 4 5 4 4 6 6 10 5 8 9 5 4 7 8 6 8 8 8 8 8 7 6 7 4 6 5
9 6 6 5 4 0 4 6 9 2 1 3 3 6 5 3 2 1 2 1 2 3 7 3 3 3 3 4 4 4 3 5 6 8 6 3 5 3 5 4 6 9 7 7 4 5 7 7 7 5 3 4 5 4
7 9 5 7 7 7 6 2 2 2 2 4 4 2 2 4 3 3 2 1 2 1 2 3 4 4 5 4 6 7 7 9 7 5 2 4 3 4 4 4 5 7 8 8 6 6 7 7 6 4 1 0 2 3
8 1 5 5 6 6 13 3 1 2 2 4 2 2 2 3 4 3 3 2 2 2 3 2 4 6 2 3 3 4 6 4 1 2 2 6 4 3 6 8 7 6 8 7 5 6 5 5 5 4 4 1 1 3
3 3 3 6 3 4 4 5 3 3 4 3 1 3 2 2 3 1 1 2 1 1 1 2 1 4 5 5 4 2 2 2 2 2 2 4 3 4 6 8 7 8 8 6 5 5 4 4 5 3 3 2 1 2
3 1 9 10 6 5 4 4 4 4 1 1 1 2 2 0 2 3 2 3 2 1 2 1 3 0 1 2 2 3 3 2 1 1 2 5 5 5 7 7 5 5 6 5 4 4 3 3 2 3 2 2 2 0
8 9 8 13 7 3 5 3 2 4 2 1 2 3 2 2 2 2 3 4 2 2 4 4 3 3 4 4 3 3 5 4 0 1 2 3 3 3 4 4 4 4 4 4 3 4 3 3 1 2 2 3 3 1
7 3 8 6 4 6 5 3 4 2 2 3 1 2 2 2 4 4 4 5 6 5 3 3 2 2 3 2 2 3 4 6 4 3 1 3 2 3 3 3 4 3 2 2 2 2 2 2 2 2 2 1 2 3
1 7 3 4 4 4 5 4 3 2 3 1 2 2 3 3 3 4 4 7 5 2 1 2 3 4 5 4 3 3 4 5 3 2 5 7 3 2 2 3 4 3 2 3 3 3 3 3 2 1 1 2 2 1
7 4 4 6 5 6 2 1 4 4 4 1 1 3 3 2 2 2 5 3 1 2 1 2 3 3 4 4 4 3 5 6 3 3 3 3 3 2 3 2 1 4 2 2 2 3 2 3 3 2 1 0 2 2
11 8 7 5 6 2 2 4 2 3 3 4 3 3 3 2 4 4 4 2 2 2 3 4 3 4 1 2 2 3 4 3 2 3 3 2 3 3 2 1 1 1 2 2 3 2 2 3 2 1 1 1 1 1
8 11 7 8 5 6 6 5 5 5 3 3 3 3 3 3 3 5 3 3 4 3 5 6 5 4 2 2 2 3 3 2 2 2 3 2 3 2 3 3 2 4 3 4 1 2 3 2 1 1 1 1 3 3
11 6 7 5 5 5 3 4 4 2 2 4 4 2 2 2 5 4 2 2 3 2 4 4 4 5 3 3 2 3 3 2 2 3 3 1 2 3 2 1 2 4 3 3 3 3 3 2 2 3 3 4 4 4
8 6 4 0 2 3 2 2 1 4 5 5 4 5 3 6 4 2 2 1 3 2 3 3 2 2 3 3 2 2 1 1 0 1 2 2 3 3 3 1 1 4 1 4 3 3 3 3 3 4 4 3 4 4
3 5 5 7 3 3 3 4 5 5 4 4 2 7 5 4 1 3 2 3 5 5 4 2 3 3 3 3 3 3 3 3 3 2 1 0 1 1 2 2 2 6 2 2 2 2 3 4 4 4 5 6 6 3
4 5 2 4 4 5 5 4 3 2 3 2 2 4 3 3 3 2 3 5 5 2 3 4 5 2 1 1 3 4 5 5 5 4 3 2 2 2 2 2 3 3 2 2 6 5 6 5 6 6 7 6 6 3
5 2 4 4 6 5 2 1 2 2 2 1 1 2 2 1 1 2 2 3 4 3 3 3 4 5 5 4 3 4 4 5 5 4 3 3 4 6 5 4 4 3 2 2 3 4 6 4 5 3 3 3 3 4
3 3 2 5 4 1 1 2 2 1 1 2 1 2 2 1 2 6 6 5 5 6 6 6 6 6 6 6 5 5 6 3 8 5 3 4 5 5 5 5 4 3 3 2 3 3 4 4 3 5 6 7 8 7
4 4 2 4 2 1 1 1 1 1 1 2 2 1 1 2 4 3 4 5 6 7 7 6 7 7 5 4 3 3 4 5 6 7 8 6 6 6 6 5 4 3 3 3 3 3 5 6 6 6 7 9 8 8
2 2 2 2 2 3 3 3 0 2 2 2 2 1 1 2 4 0 1 2 1 2 3 4 4 5 5 6 8 5 4 5 9 13 13 14 13 11 8 5 3 2 3 3 4 4 6 8 8 9 9 9 10 10
Wind_Direction
248 246 247 251 243 239 237 233 226 222 216 217 210 205 210 210 203 163 190 169 138 140 289 213 236 132 109 188 148 173 107 281 92 133 147 177 164 205 156 176 178 163 163 194 95 169 268 176 81 178 203 191 180 202
247 245 248 249 243 232 238 234 222 218 218 215 214 211 207 209 206 176 158 167 114 123 223 247 290 276 218 186 128 319 150 169 161 109 206 101 155 47 150 230 162 244 192 181 187 204 235 194 198 218 160 178 206 195
254 248 245 236 236 235 236 228 232 226 218 218 217 218 209 207 203 181 136 138 86 97 296 234 235 246 165 196 166 125 266 178 171 154 153 164 179 126 167 232 159 254 163 212 94 224 226 208 236 224 195 208 211 207
247 246 241 232 231 229 238 225 228 225 220 212 222 224 219 213 208 189 166 158 114 116 210 269 350 232 208 164 168 151 136 112 113 110 117 138 159 166 202 175 176 199 145 166 262 284 247 251 236 237 239 221 228 226
254 242 233 226 229 232 224 222 219 216 202 211 216 214 209 200 206 206 175 181 159 167 187 249 321 238 182 175 167 143 138 121 125 91 108 207 175 110 292 92 255 185 217 207 237 248 229 254 249 234 226 236 224 222
269 232 215 230 230 226 214 207 219 200 193 196 213 211 204 204 201 158 211 184 189 177 196 203 291 238 174 173 168 169 152 116 132 141 183 215 213 144 172 201 249 243 201 225 242 253 237 251 259 255 229 237 230 218
263 223 216 218 212 208 215 208 202 198 195 188 193 205 220 204 197 155 225 202 178 153 186 216 252 275 168 97 73 105 165 166 126 136 206 174 182 175 191 212 243 207 225 238 236 241 263 252 240 246 235 242 224 210
252 240 219 204 199 202 198 191 193 188 186 188 189 193 197 214 214 204 165 23 151 136 176 193 205 21 206 154 160 162 154 172 201 188 152 164 153 195 232 235 248 251 256 253 248 218 235 255 206 237 221 146 198 216
225 222 208 184 190 188 179 169 168 178 180 188 195 201 58 168 198 174 168 174 164 199 197 144 159 221 175 112 113 125 150 182 160 200 194 158 175 219 223 203 216 235 230 236 249 209 208 221 247 240 189 194 210 217
248 221 190 169 170 164 168 168 168 173 193 202 124 119 204 203 165 116 122 183 191 194 200 181 45 162 144 80 86 122 190 202 191 220 135 206 227 241 204 215 228 240 212 169 186 265 211 257 232 219 208 150 165 155
39 158 155 153 154 154 157 162 167 169 164 126 160 209 211 163 86 163 184 183 189 220 197 176 158 140 237 143 153 218 171 177 201 230 178 209 246 240 231 237 243 239 199 201 200 188 180 194 201 178 147 117 110 109
69 112 145 140 146 159 171 173 189 155 166 178 140 117 181 182 180 197 180 143 181 204 203 156 194 153 163 140 126 175 178 194 221 128 165 234 244 230 213 225 239 182 155 149 164 152 125 94 59 109 113 114 108 110
79 122 135 157 170 187 201 197 204 150 143 98 175 170 211 204 202 186 163 184 181 178 175 171 155 126 143 178 164 178 194 211 105 183 218 228 229 220 217 202 130 120 125 125 116 102 111 110 78 91 113 91 99 95
94 97 98 99 167 208 209 203 191 163 155 166 178 190 205 210 215 182 180 169 221 148 158 136 126 151 167 175 170 194 188 128 205 202 227 231 222 231 201 132 124 177 156 140 136 129 125 117 100 87 101 127 126 125
65 65 73 63 65 307 236 223 194 141 173 176 180 210 207 229 40 264 258 62 283 154 130 82 46 147 165 204 190 131 160 223 203 222 224 246 322 291 167 136 135 138 135 117 100 109 113 114 115 109 71 79 94 118
68 79 61 56 40 36 23 277 145 165 195 192 194 111 5 70 320 20 11 19 305 135 85 89 152 199 210 186 181 193 171 210 233 217 287 316 346 12 25 47 96 110 111 118 113 114 112 109 117 130 77 151 201 168
71 46 23 20 8 55 31 69 123 269 230 175 178 37 133 104 158 192 153 208 300 43 166 166 188 217 157 213 221 172 206 218 282 357 5 346 11 69 98 88 74 82 96 98 96 98 105 109 109 100 115 256 248 236
60 295 18 1 338 61 28 24 58 56 63 31 31 288 21 28 102 96 12 12 64 65 358 261 322 175 206 199 238 292 18 54 43 49 5 353 8 89 91 108 124 129 125 118 107 109 107 113 121 156 167 237 112 48
159 73 50 16 50 94 82 12 52 108 145 108 120 22 51 129 354 7 4 346 62 50 24 356 262 298 44 54 349 8 6 329 261 112 85 44 39 68 91 92 92 100 114 125 142 143 150 157 131 146 163 145 126 273
64 52 49 38 37 79 65 6 36 83 107 79 56 62 42 28 317 354 356 16 24 52 54 24 32 12 348 4 4 319 327 330 291 100 59 68 80 95 93 107 112 109 97 82 84 122 127 113 131 179 177 158 117 257
47 14 36 54 50 52 66 28 51 53 107 65 22 26 59 33 31 20 4 330 61 33 51 17 17 338 319 300 334 306 337 343 334 338 68 146 159 135 120 100 107 93 112 121 121 110 94 174 220 203 150 166 208 230
319 49 57 27 83 76 78 17 89 66 66 80 58 31 41 41 19 13 313 50 50 23 9 324 333 327 331 353 340 336 297 299 329 11 60 108 116 117 129 139 138 137 133 158 167 168 208 232 220 188 162 251 239 277
30 32 53 21 83 44 24 344 74 5 82 22 24 64 36 32 325 328 76 80 111 32 284 295 284 261 266 302 305 341 358 355 20 25 40 58 69 54 91 85 91 129 136 236 171 158 198 221 213 183 217 45 52 7
33 45 30 44 25 65 327 37 42 62 60 43 70 90 13 324 313 68 73 29 302 312 349 333 310 317 299 323 356 356 1 349 21 46 22 63 82 42 49 125 160 221 194 154 141 175 212 223 210 145 111 72 351 280
68 6 10 12 11 31 35 23 8 46 54 352 78 52 0 318 71 55 59 314 338 355 358 346 351 359 339 314 333 347 10 5 36 49 333 79 102 11 8 3 286 245 160 108 179 192 239 215 195 194 222 225 270 289
68 343 35 349 6 39 351 56 32 17 10 56 30 341 338 46 62 48 340 297 308 331 343 340 335 337 0 9 338 9 333 5 76 53 308 131 140 143 178 133 342 308 204 173 145 200 225 209 219 238 256 263 273 283
54 354 352 78 309 282 32 34 38 52 48 27 352 349 27 63 54 314 324 17 316 324 301 296 245 260 279 303 283 285 293 189 213 212 279 219 218 202 162 162 278 256 227 200 205 188 211 235 241 244 257 258 243 249
89 25 22 339 25 359 53 42 37 30 2 347 282 32 66 38 336 331 336 348 322 306 294 258 231 240 271 293 311 315 311 257 244 236 247 121 41 44 28 344 312 310 280 242 230 221 217 232 244 250 252 262 271 236
35 341 303 5 45 47 41 28 44 36 346 313 36 65 73 47 331 313 309 324 310 314 3 2 1 345 272 340 17 16 8 6 26 43 34 351 338 317 343 305 289 291 290 294 290 270 230 226 233 238 249 254 268 271
353 10 348 23 50 37 5 359 348 340 320 7 319 114 95 4 333 292 316 334 8 6 340 336 356 18 22 16 357 27 31 39 39 27 344 338 326 318 315 315 316 312 322 327 305 308 313 348 334 338 334 302 280 282
324 345 54 37 74 319 344 333 287 274 305 25 346 68 98 254 287 43 26 7 30 38 39 33 33 25 22 19 12 2 1 5 359 339 283 279 281 285 291 293 286 279 284 283 288 284 288 290 251 281 287 286 284 281
355 42 32 57 5 277 209 2 3 67 3 58 12 34 16 75 52 21 3 3 25 30 18 16 9 347 338 334 329 287 296 308 322 323 311 316 310 303 291 284 285 292 290 278 260 257 265 268 275 265 274 276 275 271
360 8 36 54 26 25 11 335 168 112 77 74 48 31 54 77 87 356 15 49 54 291 320 317 311 327 322 319 313 298 300 308 307 323 320 318 321 320 321 308 297 310 309 297 287 277 281 278 278 277 274 270 275 278